Location: Cahas Mountain Overlook
(37.0833°N, 80.1000°W)
Time: 18:42:55
(UTC-04:00)

Tiros 1 - Pass Details

Date: 09 February 2026
Orbit: 618 x 649 km, 48.4° (Epoch: 13 March)

Event Time Altitude Azimuth Distance (km) Brightness Sun altitude
Rises 13:24:33 0° 271° (W) 2,885 10.6 37.1°
Reaches altitude 10° 13:27:09 10° 284° (WNW) 1,978 9.8 37.0°
Maximum altitude 13:31:01 27° 342° (NNW) 1,194 8.4 36.7°
Drops below altitude 10° 13:34:54 10° 41° (NE) 1,978 9.3 36.5°
Sets 13:37:30 0° 53° (NE) 2,886 10.1 36.3°
